Flag for Cyprus Weather past 2 weeks in Kyrenia, Cyprus

Now
43 °F

Clear.


Feels Like: 38 °F
Forecast: 44 / 59 °F
Wind: 8 mph from Northwest

Location: Ercan

Current Time: Jan 27, 2015 at 3:13:36 AM

Latest Report: Jan 27, 2015 at 2:50 AM


Visibility: 10 mi

Pressure: 30.09 "Hg

Humidity: 76%

Dew point: 36 °F

Location of KyreniaLocation

Historic Weather in Kyrenia — Graph

°F

Kyrenia temperature yesterday

Maximum temperature yesterday: 63 °F (at 11:20 AM)
Minimum temperature yesterday: 39 °F (at 4:20 AM)
Average temperature yesterday: 51 °F

Past Weeks' High & Low Weather Summary

 TemperatureHumidityPressure
High64 °F (Jan 20, 12:20 PM)100% (Jan 21, 4:50 AM)30.36 "Hg (Jan 21, 4:50 AM)
Low34 °F (Jan 12, 2:20 AM)45% (Jan 26, 1:50 PM)29.95 "Hg (Jan 24, 12:50 PM)
Average51 °F80%30.14 "Hg
* Reported Jan 12 1:20 AM — Jan 27 1:50 AM, Kyrenia, Weather by CustomWeather, © 2014

Note: Actual official high and low records may vary slightly from our data, if they occured in-between our weather recording intervals... More about our weather records

Advertising

Kyrenia weather history for previous 24 hours

 ConditionsComfort  
Time TempWeatherWind HumidityBarometerVisibility
1:50 AM
Jan 27
41 °FClear.9 mph87%30.09 "Hg10 mi
1:20 AM43 °FClear.10 mph81%30.09 "Hg10 mi
12:50 AM41 °FClear.9 mph87%30.09 "Hg10 mi
12:20 AM43 °FClear.9 mph87%30.09 "Hg10 mi
11:50 PM
Jan 26
45 °FClear.8 mph81%30.09 "Hg10 mi
11:20 PM45 °FClear.7 mph87%30.09 "Hg10 mi
10:50 PM46 °FClear.9 mph82%30.09 "Hg10 mi
10:20 PM46 °FClear.10 mph87%30.09 "Hg10 mi
9:50 PM46 °FClear.8 mph82%30.12 "Hg10 mi
9:20 PM46 °FClear.8 mph82%30.12 "Hg10 mi
8:50 PM50 °FPassing clouds.10 mph76%30.12 "HgN/A
8:20 PM52 °FPassing clouds.12 mph77%30.12 "HgN/A
7:50 PM50 °FPassing clouds.9 mph82%30.12 "HgN/A
7:20 PM52 °FPassing clouds.10 mph77%30.12 "HgN/A
6:50 PM52 °FPassing clouds.9 mph77%30.12 "HgN/A
6:20 PM54 °FPassing clouds.9 mph72%30.09 "HgN/A
5:50 PM54 °FPassing clouds.10 mph72%30.09 "HgN/A
5:20 PM55 °FPassing clouds.9 mph67%30.09 "HgN/A
4:50 PM57 °FPassing clouds.12 mph63%30.09 "HgN/A
4:20 PM61 °FPassing clouds.12 mph55%30.09 "HgN/A
3:50 PM61 °FPassing clouds.13 mph55%30.07 "HgN/A
3:20 PM63 °FPassing clouds.14 mph49%30.07 "HgN/A
2:50 PM63 °FPassing clouds.14 mph49%30.07 "HgN/A
2:20 PM63 °FPassing clouds.15 mph45%30.07 "HgN/A
1:50 PM63 °FPassing clouds.15 mph45%30.07 "HgN/A
1:20 PM63 °FPassing clouds.15 mph49%30.09 "HgN/A
12:50 PM63 °FPassing clouds.15 mph52%30.09 "HgN/A
12:20 PM63 °FPassing clouds.15 mph52%30.09 "HgN/A
11:50 AM63 °FPassing clouds.15 mph56%30.09 "HgN/A
11:20 AM63 °FPassing clouds.15 mph56%30.09 "HgN/A
10:50 AM61 °FPassing clouds.15 mph63%30.12 "HgN/A
10:20 AM61 °FPassing clouds.12 mph63%30.12 "HgN/A
9:50 AM57 °FPassing clouds.10 mph67%30.12 "HgN/A
9:20 AM55 °FPassing clouds.8 mph72%30.12 "HgN/A
8:50 AM54 °FPassing clouds.8 mph67%30.09 "HgN/A
8:20 AM48 °FPassing clouds.7 mph76%30.09 "HgN/A
7:50 AM43 °FPassing clouds.6 mph76%30.09 "HgN/A
7:20 AM39 °FPassing clouds.5 mph81%30.09 "HgN/A
6:50 AM39 °FPassing clouds.7 mph81%30.09 "HgN/A
6:20 AM41 °FPassing clouds.6 mph76%30.07 "HgN/A
5:50 AM39 °FPassing clouds.5 mph81%30.07 "HgN/A
5:20 AM41 °FPassing clouds.5 mph76%30.07 "HgN/A
4:50 AM41 °FPassing clouds.6 mph76%30.07 "HgN/A
4:20 AM39 °FPassing clouds.5 mph87%30.07 "HgN/A
3:20 AM41 °FPassing clouds.7 mph81%30.07 "HgN/A
Weather by CustomWeather, © 2014

See weather overviewHow to use our weather pages